owner,sensor,date,latitude,longitude,vertical_datum,sea_water_practical_salinity,qcFlag 
TABS,ioos:station:wmo:42051:1,2013-03-01T00:00:00Z,29.6350,-93.6417,2.0,24.5528,11111222 
TABS,ioos:station:wmo:42051:1,2013-03-01T00:30:00Z,29.6350,-93.6417,2.0,24.556,11111222 
TABS,ioos:station:wmo:42051:1,2013-03-01T01:00:00Z,29.6350,-93.6417,2.0,24.543,11111222 
TABS,ioos:station:wmo:42051:1,2013-03-01T01:30:00Z,29.6350,-93.6417,2.0,24.5412,11111222 
TABS,ioos:station:wmo:42051:1,2013-03-01T02:00:00Z,29.6350,-93.6417,2.0,24.5419,11111222 
TABS,ioos:station:wmo:42051:1,2013-03-01T02:30:00Z,29.6350,-93.6417,2.0,24.5448,11111222 
TABS,ioos:station:wmo:42051:1,2013-03-01T03:00:00Z,29.6350,-93.6417,2.0,24.5476,11111222 
TABS,ioos:station:wmo:42051:1,2013-03-01T03:30:00Z,29.6350,-93.6417,2.0,24.5498,11111222 
TABS,ioos:station:wmo:42051:1,2013-03-01T04:00:00Z,29.6350,-93.6417,2.0,24.5512,11111222 
TABS,ioos:station:wmo:42051:1,2013-03-01T04:30:00Z,29.6350,-93.6417,2.0,24.5614,11111222 
TABS,ioos:station:wmo:42051:1,2013-03-01T05:00:00Z,29.6350,-93.6417,2.0,24.5736,11111222 
TABS,ioos:station:wmo:42051:1,2013-03-01T05:30:00Z,29.6350,-93.6417,2.0,24.5924,11111222 
TABS,ioos:station:wmo:42051:1,2013-03-01T06:00:00Z,29.6350,-93.6417,2.0,24.5993,11111222 
TABS,ioos:station:wmo:42051:1,2013-03-01T06:30:00Z,29.6350,-93.6417,2.0,24.6073,11111222 
TABS,ioos:station:wmo:42051:1,2013-03-01T07:00:00Z,29.6350,-93.6417,2.0,24.6214,11111222 
TABS,ioos:station:wmo:42051:1,2013-03-01T07:30:00Z,29.6350,-93.6417,2.0,24.628,11111222 
TABS,ioos:station:wmo:42051:1,2013-03-01T08:00:00Z,29.6350,-93.6417,2.0,24.6257,11111222 
TABS,ioos:station:wmo:42051:1,2013-03-01T08:30:00Z,29.6350,-93.6417,2.0,24.6343,11111222 
TABS,ioos:station:wmo:42051:1,2013-03-01T09:00:00Z,29.6350,-93.6417,2.0,24.6396,11111222 
TABS,ioos:station:wmo:42051:1,2013-03-01T09:30:00Z,29.6350,-93.6417,2.0,24.6445,11111222 
TABS,ioos:station:wmo:42051:1,2013-03-01T10:00:00Z,29.6350,-93.6417,2.0,24.6562,11111222 
TABS,ioos:station:wmo:42051:1,2013-03-01T10:30:00Z,29.6350,-93.6417,2.0,24.6684,11111222 
TABS,ioos:station:wmo:42051:1,2013-03-01T11:00:00Z,29.6350,-93.6417,2.0,24.6813,11111222 
TABS,ioos:station:wmo:42051:1,2013-03-01T11:30:00Z,29.6350,-93.6417,2.0,24.6955,11111222 
TABS,ioos:station:wmo:42051:1,2013-03-01T12:00:00Z,29.6350,-93.6417,2.0,24.6694,11111222 
TABS,ioos:station:wmo:42051:1,2013-03-01T12:30:00Z,29.6350,-93.6417,2.0,24.6386,11111222 
TABS,ioos:station:wmo:42051:1,2013-03-01T13:00:00Z,29.6350,-93.6417,2.0,24.6312,11111222 
TABS,ioos:station:wmo:42051:1,2013-03-01T13:30:00Z,29.6350,-93.6417,2.0,24.6351,11111222 
TABS,ioos:station:wmo:42051:1,2013-03-01T14:00:00Z,29.6350,-93.6417,2.0,24.6441,11111222 
TABS,ioos:station:wmo:42051:1,2013-03-01T14:30:00Z,29.6350,-93.6417,2.0,24.6696,11111222 
TABS,ioos:station:wmo:42051:1,2013-03-01T15:00:00Z,29.6350,-93.6417,2.0,24.6958,11111222 
TABS,ioos:station:wmo:42051:1,2013-03-01T15:30:00Z,29.6350,-93.6417,2.0,24.7187,11111222 
TABS,ioos:station:wmo:42051:1,2013-03-01T16:00:00Z,29.6350,-93.6417,2.0,24.7491,11111222 
TABS,ioos:station:wmo:42051:1,2013-03-01T16:30:00Z,29.6350,-93.6417,2.0,24.8063,11111222 
TABS,ioos:station:wmo:42051:1,2013-03-01T17:00:00Z,29.6350,-93.6417,2.0,24.8226,11111222 
TABS,ioos:station:wmo:42051:1,2013-03-01T17:30:00Z,29.6350,-93.6417,2.0,24.8037,11111222 
TABS,ioos:station:wmo:42051:1,2013-03-01T18:00:00Z,29.6350,-93.6417,2.0,24.8307,11111222 
TABS,ioos:station:wmo:42051:1,2013-03-01T18:30:00Z,29.6350,-93.6417,2.0,24.8386,11111222 
TABS,ioos:station:wmo:42051:1,2013-03-01T19:00:00Z,29.6350,-93.6417,2.0,24.8742,11111222 
TABS,ioos:station:wmo:42051:1,2013-03-01T19:30:00Z,29.6350,-93.6417,2.0,24.8998,11111222 
TABS,ioos:station:wmo:42051:1,2013-03-01T20:00:00Z,29.6350,-93.6417,2.0,24.9064,11111222 
TABS,ioos:station:wmo:42051:1,2013-03-01T20:30:00Z,29.6350,-93.6417,2.0,24.9748,11111222 
TABS,ioos:station:wmo:42051:1,2013-03-01T21:00:00Z,29.6350,-93.6417,2.0,25.0475,11111222 
TABS,ioos:station:wmo:42051:1,2013-03-01T21:30:00Z,29.6350,-93.6417,2.0,25.068,11111222 
TABS,ioos:station:wmo:42051:1,2013-03-01T22:00:00Z,29.6350,-93.6417,2.0,25.065,11111222 
TABS,ioos:station:wmo:42051:1,2013-03-01T22:30:00Z,29.6350,-93.6417,2.0,25.0135,11111222 
TABS,ioos:station:wmo:42051:1,2013-03-01T23:00:00Z,29.6350,-93.6417,2.0,24.9909,11111222 
TABS,ioos:station:wmo:42051:1,2013-03-01T23:30:00Z,29.6350,-93.6417,2.0,24.6391,11111222 
TABS,ioos:station:wmo:42051:1,2013-03-02T00:00:00Z,29.6350,-93.6417,2.0,24.3443,11111222 
TABS,ioos:station:wmo:42051:1,2013-03-02T00:30:00Z,29.6350,-93.6417,2.0,24.2451,11111222 
TABS,ioos:station:wmo:42051:1,2013-03-02T01:00:00Z,29.6350,-93.6417,2.0,24.0465,11111222 
TABS,ioos:station:wmo:42051:1,2013-03-02T01:30:00Z,29.6350,-93.6417,2.0,23.8916,11111222 
TABS,ioos:station:wmo:42051:1,2013-03-02T02:00:00Z,29.6350,-93.6417,2.0,23.8489,11111222 
TABS,ioos:station:wmo:42051:1,2013-03-02T02:30:00Z,29.6350,-93.6417,2.0,23.6802,11111222 
TABS,ioos:station:wmo:42051:1,2013-03-02T03:00:00Z,29.6350,-93.6417,2.0,23.2983,11111222 
TABS,ioos:station:wmo:42051:1,2013-03-02T03:30:00Z,29.6350,-93.6417,2.0,23.1435,11111222 
TABS,ioos:station:wmo:42051:1,2013-03-02T04:00:00Z,29.6350,-93.6417,2.0,23.2115,11111222 
TABS,ioos:station:wmo:42051:1,2013-03-02T04:30:00Z,29.6350,-93.6417,2.0,23.2753,11111222 
TABS,ioos:station:wmo:42051:1,2013-03-02T05:00:00Z,29.6350,-93.6417,2.0,23.4714,11111222 
TABS,ioos:station:wmo:42051:1,2013-03-02T05:30:00Z,29.6350,-93.6417,2.0,23.5657,11111222 
TABS,ioos:station:wmo:42051:1,2013-03-02T06:00:00Z,29.6350,-93.6417,2.0,23.916,11111222 
TABS,ioos:station:wmo:42051:1,2013-03-02T06:30:00Z,29.6350,-93.6417,2.0,23.9666,11111222 
TABS,ioos:station:wmo:42051:1,2013-03-02T07:00:00Z,29.6350,-93.6417,2.0,24.0148,11111222 
TABS,ioos:station:wmo:42051:1,2013-03-02T07:30:00Z,29.6350,-93.6417,2.0,24.0868,11111222 
TABS,ioos:station:wmo:42051:1,2013-03-02T08:00:00Z,29.6350,-93.6417,2.0,24.1761,11111222 
TABS,ioos:station:wmo:42051:1,2013-03-02T08:30:00Z,29.6350,-93.6417,2.0,24.2224,11111222 
TABS,ioos:station:wmo:42051:1,2013-03-02T09:00:00Z,29.6350,-93.6417,2.0,24.2702,11111222 
TABS,ioos:station:wmo:42051:1,2013-03-02T09:30:00Z,29.6350,-93.6417,2.0,24.2298,11111222 
TABS,ioos:station:wmo:42051:1,2013-03-02T10:00:00Z,29.6350,-93.6417,2.0,24.1171,11111222 
TABS,ioos:station:wmo:42051:1,2013-03-02T10:30:00Z,29.6350,-93.6417,2.0,24.1019,11111222 
TABS,ioos:station:wmo:42051:1,2013-03-02T11:00:00Z,29.6350,-93.6417,2.0,24.0985,11111222 
TABS,ioos:station:wmo:42051:1,2013-03-02T11:30:00Z,29.6350,-93.6417,2.0,24.1078,11111222 
TABS,ioos:station:wmo:42051:1,2013-03-02T12:00:00Z,29.6350,-93.6417,2.0,24.138,11111222 
TABS,ioos:station:wmo:42051:1,2013-03-02T12:30:00Z,29.6350,-93.6417,2.0,24.21,11111222 
TABS,ioos:station:wmo:42051:1,2013-03-02T13:00:00Z,29.6350,-93.6417,2.0,24.454,11111222 
TABS,ioos:station:wmo:42051:1,2013-03-02T13:30:00Z,29.6350,-93.6417,2.0,24.5813,11111222 
TABS,ioos:station:wmo:42051:1,2013-03-02T14:00:00Z,29.6350,-93.6417,2.0,24.6561,11111222 
TABS,ioos:station:wmo:42051:1,2013-03-02T14:30:00Z,29.6350,-93.6417,2.0,24.6416,11111222 
TABS,ioos:station:wmo:42051:1,2013-03-02T15:00:00Z,29.6350,-93.6417,2.0,24.5684,11111222 
TABS,ioos:station:wmo:42051:1,2013-03-02T15:30:00Z,29.6350,-93.6417,2.0,24.5174,11111222 
TABS,ioos:station:wmo:42051:1,2013-03-02T16:00:00Z,29.6350,-93.6417,2.0,24.4747,11111222 
TABS,ioos:station:wmo:42051:1,2013-03-02T16:30:00Z,29.6350,-93.6417,2.0,24.6138,11111222 
TABS,ioos:station:wmo:42051:1,2013-03-02T17:00:00Z,29.6350,-93.6417,2.0,24.7417,11111222 
TABS,ioos:station:wmo:42051:1,2013-03-02T17:30:00Z,29.6350,-93.6417,2.0,24.6342,11111222 
TABS,ioos:station:wmo:42051:1,2013-03-02T18:00:00Z,29.6350,-93.6417,2.0,24.6789,11111222 
TABS,ioos:station:wmo:42051:1,2013-03-02T18:30:00Z,29.6350,-93.6417,2.0,24.7325,11111222 
TABS,ioos:station:wmo:42051:1,2013-03-02T19:00:00Z,29.6350,-93.6417,2.0,24.7523,11111222 
TABS,ioos:station:wmo:42051:1,2013-03-02T19:30:00Z,29.6350,-93.6417,2.0,24.8724,11111222 
TABS,ioos:station:wmo:42051:1,2013-03-02T20:00:00Z,29.6350,-93.6417,2.0,24.9068,11111222 
TABS,ioos:station:wmo:42051:1,2013-03-02T20:30:00Z,29.6350,-93.6417,2.0,24.9444,11111222 
TABS,ioos:station:wmo:42051:1,2013-03-02T21:00:00Z,29.6350,-93.6417,2.0,24.9204,11111222 
TABS,ioos:station:wmo:42051:1,2013-03-02T21:30:00Z,29.6350,-93.6417,2.0,24.9493,11111222 
TABS,ioos:station:wmo:42051:1,2013-03-02T22:00:00Z,29.6350,-93.6417,2.0,24.9691,11111222 
TABS,ioos:station:wmo:42051:1,2013-03-02T22:30:00Z,29.6350,-93.6417,2.0,25.012,11111222 
TABS,ioos:station:wmo:42051:1,2013-03-02T23:00:00Z,29.6350,-93.6417,2.0,25.0964,11111222 
TABS,ioos:station:wmo:42051:1,2013-03-02T23:30:00Z,29.6350,-93.6417,2.0,25.1383,11111222 
TABS,ioos:station:wmo:42051:1,2013-03-03T00:00:00Z,29.6350,-93.6417,2.0,25.1057,11111222 
TABS,ioos:station:wmo:42051:1,2013-03-03T00:30:00Z,29.6350,-93.6417,2.0,25.1263,11111222 
TABS,ioos:station:wmo:42051:1,2013-03-03T01:00:00Z,29.6350,-93.6417,2.0,25.154,11111222 
TABS,ioos:station:wmo:42051:1,2013-03-03T01:30:00Z,29.6350,-93.6417,2.0,25.4291,11111222 
TABS,ioos:station:wmo:42051:1,2013-03-03T02:00:00Z,29.6350,-93.6417,2.0,25.3701,11111222 
TABS,ioos:station:wmo:42051:1,2013-03-03T02:30:00Z,29.6350,-93.6417,2.0,25.8052,11111222 
TABS,ioos:station:wmo:42051:1,2013-03-03T03:00:00Z,29.6350,-93.6417,2.0,26.0919,11111222 
TABS,ioos:station:wmo:42051:1,2013-03-03T03:30:00Z,29.6350,-93.6417,2.0,25.703,11111222 
TABS,ioos:station:wmo:42051:1,2013-03-03T04:00:00Z,29.6350,-93.6417,2.0,25.6712,11111222 
TABS,ioos:station:wmo:42051:1,2013-03-03T04:30:00Z,29.6350,-93.6417,2.0,25.5611,11111222 
TABS,ioos:station:wmo:42051:1,2013-03-03T05:00:00Z,29.6350,-93.6417,2.0,25.6114,11111222 
TABS,ioos:station:wmo:42051:1,2013-03-03T05:30:00Z,29.6350,-93.6417,2.0,25.6544,11111222 
TABS,ioos:station:wmo:42051:1,2013-03-03T06:00:00Z,29.6350,-93.6417,2.0,25.6955,11111222 
TABS,ioos:station:wmo:42051:1,2013-03-03T06:30:00Z,29.6350,-93.6417,2.0,25.7583,11111222 
TABS,ioos:station:wmo:42051:1,2013-03-03T07:00:00Z,29.6350,-93.6417,2.0,25.3915,11111222 
TABS,ioos:station:wmo:42051:1,2013-03-03T07:30:00Z,29.6350,-93.6417,2.0,25.3264,11111222 
TABS,ioos:station:wmo:42051:1,2013-03-03T08:00:00Z,29.6350,-93.6417,2.0,25.2792,11111222 
TABS,ioos:station:wmo:42051:1,2013-03-03T08:30:00Z,29.6350,-93.6417,2.0,25.1814,11111222 
TABS,ioos:station:wmo:42051:1,2013-03-03T09:00:00Z,29.6350,-93.6417,2.0,25.0907,11111222 
TABS,ioos:station:wmo:42051:1,2013-03-03T09:30:00Z,29.6350,-93.6417,2.0,25.0009,11111222 
TABS,ioos:station:wmo:42051:1,2013-03-03T10:00:00Z,29.6350,-93.6417,2.0,25.0351,11111222 
TABS,ioos:station:wmo:42051:1,2013-03-03T10:30:00Z,29.6350,-93.6417,2.0,24.9569,11111222 
TABS,ioos:station:wmo:42051:1,2013-03-03T11:00:00Z,29.6350,-93.6417,2.0,24.9887,11111222 
TABS,ioos:station:wmo:42051:1,2013-03-03T11:30:00Z,29.6350,-93.6417,2.0,25.032,11111222 
TABS,ioos:station:wmo:42051:1,2013-03-03T12:00:00Z,29.6350,-93.6417,2.0,25.0758,11111222 
TABS,ioos:station:wmo:42051:1,2013-03-03T12:30:00Z,29.6350,-93.6417,2.0,25.1316,11111222 
TABS,ioos:station:wmo:42051:1,2013-03-03T13:00:00Z,29.6350,-93.6417,2.0,25.1762,11111222 
TABS,ioos:station:wmo:42051:1,2013-03-03T13:30:00Z,29.6350,-93.6417,2.0,25.2292,11111222 
TABS,ioos:station:wmo:42051:1,2013-03-03T14:00:00Z,29.6350,-93.6417,2.0,25.2598,11111222 
TABS,ioos:station:wmo:42051:1,2013-03-03T14:30:00Z,29.6350,-93.6417,2.0,25.2627,11111222 
TABS,ioos:station:wmo:42051:1,2013-03-03T15:00:00Z,29.6350,-93.6417,2.0,25.2712,11111222 
TABS,ioos:station:wmo:42051:1,2013-03-03T15:30:00Z,29.6350,-93.6417,2.0,25.2877,11111222 
TABS,ioos:station:wmo:42051:1,2013-03-03T16:00:00Z,29.6350,-93.6417,2.0,25.2803,11111222 
TABS,ioos:station:wmo:42051:1,2013-03-03T16:30:00Z,29.6350,-93.6417,2.0,25.2584,11111222 
TABS,ioos:station:wmo:42051:1,2013-03-03T17:00:00Z,29.6350,-93.6417,2.0,25.2614,11111222 
TABS,ioos:station:wmo:42051:1,2013-03-03T17:30:00Z,29.6350,-93.6417,2.0,25.261,11111222 
TABS,ioos:station:wmo:42051:1,2013-03-03T18:00:00Z,29.6350,-93.6417,2.0,25.2233,11111222 
TABS,ioos:station:wmo:42051:1,2013-03-03T18:30:00Z,29.6350,-93.6417,2.0,25.2345,11111222 
TABS,ioos:station:wmo:42051:1,2013-03-03T19:00:00Z,29.6350,-93.6417,2.0,25.0771,11111222 
TABS,ioos:station:wmo:42051:1,2013-03-03T19:30:00Z,29.6350,-93.6417,2.0,25.0959,11111222 
TABS,ioos:station:wmo:42051:1,2013-03-03T20:00:00Z,29.6350,-93.6417,2.0,25.0694,11111222 
TABS,ioos:station:wmo:42051:1,2013-03-03T20:30:00Z,29.6350,-93.6417,2.0,25.1068,11111222 
TABS,ioos:station:wmo:42051:1,2013-03-03T21:00:00Z,29.6350,-93.6417,2.0,25.1614,11111222 
TABS,ioos:station:wmo:42051:1,2013-03-03T21:30:00Z,29.6350,-93.6417,2.0,25.2127,11111222 
TABS,ioos:station:wmo:42051:1,2013-03-03T22:00:00Z,29.6350,-93.6417,2.0,25.256,11111222 
TABS,ioos:station:wmo:42051:1,2013-03-03T22:30:00Z,29.6350,-93.6417,2.0,25.3105,11111222 
TABS,ioos:station:wmo:42051:1,2013-03-03T23:00:00Z,29.6350,-93.6417,2.0,25.283,11111222 
TABS,ioos:station:wmo:42051:1,2013-03-03T23:30:00Z,29.6350,-93.6417,2.0,25.3259,11111222 
TABS,ioos:station:wmo:42051:1,2013-03-04T00:00:00Z,29.6350,-93.6417,2.0,25.3561,11111222 
TABS,ioos:station:wmo:42051:1,2013-03-04T00:30:00Z,29.6350,-93.6417,2.0,25.3914,11111222 
TABS,ioos:station:wmo:42051:1,2013-03-04T01:00:00Z,29.6350,-93.6417,2.0,25.421,11111222 
TABS,ioos:station:wmo:42051:1,2013-03-04T01:30:00Z,29.6350,-93.6417,2.0,25.4731,11111222 
TABS,ioos:station:wmo:42051:1,2013-03-04T02:00:00Z,29.6350,-93.6417,2.0,25.5116,11111222 
TABS,ioos:station:wmo:42051:1,2013-03-04T02:30:00Z,29.6350,-93.6417,2.0,25.5361,11111222 
TABS,ioos:station:wmo:42051:1,2013-03-04T03:00:00Z,29.6350,-93.6417,2.0,25.6,11111222 
TABS,ioos:station:wmo:42051:1,2013-03-04T03:30:00Z,29.6350,-93.6417,2.0,25.7152,11111222 
TABS,ioos:station:wmo:42051:1,2013-03-04T04:00:00Z,29.6350,-93.6417,2.0,25.7347,11111222 
TABS,ioos:station:wmo:42051:1,2013-03-04T04:30:00Z,29.6350,-93.6417,2.0,25.804,11111222 
TABS,ioos:station:wmo:42051:1,2013-03-04T05:00:00Z,29.6350,-93.6417,2.0,25.9187,11111222 
TABS,ioos:station:wmo:42051:1,2013-03-04T05:30:00Z,29.6350,-93.6417,2.0,25.9902,11111222 
TABS,ioos:station:wmo:42051:1,2013-03-04T06:00:00Z,29.6350,-93.6417,2.0,26.0903,11111222 
TABS,ioos:station:wmo:42051:1,2013-03-04T06:30:00Z,29.6350,-93.6417,2.0,26.166,11111222 
TABS,ioos:station:wmo:42051:1,2013-03-04T07:00:00Z,29.6350,-93.6417,2.0,26.2068,11111222 
TABS,ioos:station:wmo:42051:1,2013-03-04T07:30:00Z,29.6350,-93.6417,2.0,26.2243,11111222 
TABS,ioos:station:wmo:42051:1,2013-03-04T08:00:00Z,29.6350,-93.6417,2.0,26.2332,11111222 
TABS,ioos:station:wmo:42051:1,2013-03-04T08:30:00Z,29.6350,-93.6417,2.0,26.2845,11111222 
TABS,ioos:station:wmo:42051:1,2013-03-04T09:00:00Z,29.6350,-93.6417,2.0,26.283,11111222 
TABS,ioos:station:wmo:42051:1,2013-03-04T09:30:00Z,29.6350,-93.6417,2.0,26.2757,11111222 
TABS,ioos:station:wmo:42051:1,2013-03-04T10:00:00Z,29.6350,-93.6417,2.0,26.3229,11111222 
TABS,ioos:station:wmo:42051:1,2013-03-04T10:30:00Z,29.6350,-93.6417,2.0,26.3265,11111222 
TABS,ioos:station:wmo:42051:1,2013-03-04T11:00:00Z,29.6350,-93.6417,2.0,26.3731,11111222 
TABS,ioos:station:wmo:42051:1,2013-03-04T11:30:00Z,29.6350,-93.6417,2.0,26.4105,11111222 
TABS,ioos:station:wmo:42051:1,2013-03-04T12:00:00Z,29.6350,-93.6417,2.0,26.5123,11111222 
TABS,ioos:station:wmo:42051:1,2013-03-04T12:30:00Z,29.6350,-93.6417,2.0,26.5555,11111222 
TABS,ioos:station:wmo:42051:1,2013-03-04T13:00:00Z,29.6350,-93.6417,2.0,26.6511,11111222 
TABS,ioos:station:wmo:42051:1,2013-03-04T13:30:00Z,29.6350,-93.6417,2.0,26.6563,11111222 
TABS,ioos:station:wmo:42051:1,2013-03-04T14:00:00Z,29.6350,-93.6417,2.0,26.6975,11111222 
TABS,ioos:station:wmo:42051:1,2013-03-04T14:30:00Z,29.6350,-93.6417,2.0,26.6867,11111222 
TABS,ioos:station:wmo:42051:1,2013-03-04T15:00:00Z,29.6350,-93.6417,2.0,26.6534,11111222 
TABS,ioos:station:wmo:42051:1,2013-03-04T15:30:00Z,29.6350,-93.6417,2.0,26.7254,11111222 
TABS,ioos:station:wmo:42051:1,2013-03-04T16:00:00Z,29.6350,-93.6417,2.0,26.777,11111222 
TABS,ioos:station:wmo:42051:1,2013-03-04T16:30:00Z,29.6350,-93.6417,2.0,26.7963,11111222 
TABS,ioos:station:wmo:42051:1,2013-03-04T17:00:00Z,29.6350,-93.6417,2.0,26.868,11111222 
TABS,ioos:station:wmo:42051:1,2013-03-04T17:30:00Z,29.6350,-93.6417,2.0,26.8974,11111222 
TABS,ioos:station:wmo:42051:1,2013-03-04T18:00:00Z,29.6350,-93.6417,2.0,26.7763,11111222 
TABS,ioos:station:wmo:42051:1,2013-03-04T18:30:00Z,29.6350,-93.6417,2.0,26.8889,11111222 
TABS,ioos:station:wmo:42051:1,2013-03-04T19:00:00Z,29.6350,-93.6417,2.0,26.9752,11111222 
TABS,ioos:station:wmo:42051:1,2013-03-04T19:30:00Z,29.6350,-93.6417,2.0,27.092,11111222 
TABS,ioos:station:wmo:42051:1,2013-03-04T20:00:00Z,29.6350,-93.6417,2.0,27.1549,11111222 
TABS,ioos:station:wmo:42051:1,2013-03-04T20:30:00Z,29.6350,-93.6417,2.0,27.1481,11111222 
TABS,ioos:station:wmo:42051:1,2013-03-04T21:00:00Z,29.6350,-93.6417,2.0,27.1592,11111222 
TABS,ioos:station:wmo:42051:1,2013-03-04T21:30:00Z,29.6350,-93.6417,2.0,27.2202,11111222 
TABS,ioos:station:wmo:42051:1,2013-03-04T22:00:00Z,29.6350,-93.6417,2.0,27.2519,11111222 
TABS,ioos:station:wmo:42051:1,2013-03-04T22:30:00Z,29.6350,-93.6417,2.0,27.2802,11111222 
TABS,ioos:station:wmo:42051:1,2013-03-04T23:00:00Z,29.6350,-93.6417,2.0,27.2491,11111222 
TABS,ioos:station:wmo:42051:1,2013-03-04T23:30:00Z,29.6350,-93.6417,2.0,27.2362,11111222 
TABS,ioos:station:wmo:42051:1,2013-03-05T00:00:00Z,29.6350,-93.6417,2.0,27.2345,11111222 
TABS,ioos:station:wmo:42051:1,2013-03-05T00:30:00Z,29.6350,-93.6417,2.0,27.2424,11111222 
TABS,ioos:station:wmo:42051:1,2013-03-05T01:00:00Z,29.6350,-93.6417,2.0,27.2472,11111222 
TABS,ioos:station:wmo:42051:1,2013-03-05T01:30:00Z,29.6350,-93.6417,2.0,27.2447,11111222 
TABS,ioos:station:wmo:42051:1,2013-03-05T02:00:00Z,29.6350,-93.6417,2.0,27.2443,11111222 
TABS,ioos:station:wmo:42051:1,2013-03-05T02:30:00Z,29.6350,-93.6417,2.0,27.2391,11111222 
TABS,ioos:station:wmo:42051:1,2013-03-05T03:00:00Z,29.6350,-93.6417,2.0,27.2445,11111222 
TABS,ioos:station:wmo:42051:1,2013-03-05T03:30:00Z,29.6350,-93.6417,2.0,27.2372,11111222 
TABS,ioos:station:wmo:42051:1,2013-03-05T04:00:00Z,29.6350,-93.6417,2.0,27.216,11111222 
TABS,ioos:station:wmo:42051:1,2013-03-05T04:30:00Z,29.6350,-93.6417,2.0,27.1997,11111222 
TABS,ioos:station:wmo:42051:1,2013-03-05T05:00:00Z,29.6350,-93.6417,2.0,27.1791,11111222 
TABS,ioos:station:wmo:42051:1,2013-03-05T05:30:00Z,29.6350,-93.6417,2.0,27.164,11111222 
TABS,ioos:station:wmo:42051:1,2013-03-05T06:00:00Z,29.6350,-93.6417,2.0,27.1597,11111222 
TABS,ioos:station:wmo:42051:1,2013-03-05T06:30:00Z,29.6350,-93.6417,2.0,27.1555,11111222 
TABS,ioos:station:wmo:42051:1,2013-03-05T07:00:00Z,29.6350,-93.6417,2.0,27.1496,11111222 
TABS,ioos:station:wmo:42051:1,2013-03-05T07:30:00Z,29.6350,-93.6417,2.0,27.1323,11111222 
TABS,ioos:station:wmo:42051:1,2013-03-05T08:00:00Z,29.6350,-93.6417,2.0,27.13,11111222 
TABS,ioos:station:wmo:42051:1,2013-03-05T08:30:00Z,29.6350,-93.6417,2.0,27.1021,11111222 
TABS,ioos:station:wmo:42051:1,2013-03-05T09:00:00Z,29.6350,-93.6417,2.0,27.0886,11111222 
TABS,ioos:station:wmo:42051:1,2013-03-05T09:30:00Z,29.6350,-93.6417,2.0,27.1145,11111222 
TABS,ioos:station:wmo:42051:1,2013-03-05T10:00:00Z,29.6350,-93.6417,2.0,27.1132,11111222 
TABS,ioos:station:wmo:42051:1,2013-03-05T10:30:00Z,29.6350,-93.6417,2.0,27.1138,11111222 
TABS,ioos:station:wmo:42051:1,2013-03-05T11:00:00Z,29.6350,-93.6417,2.0,27.1072,11111222 
TABS,ioos:station:wmo:42051:1,2013-03-05T11:30:00Z,29.6350,-93.6417,2.0,27.0896,11111222 
TABS,ioos:station:wmo:42051:1,2013-03-05T12:00:00Z,29.6350,-93.6417,2.0,27.0886,11111222 
TABS,ioos:station:wmo:42051:1,2013-03-05T12:30:00Z,29.6350,-93.6417,2.0,27.0508,11111222 
TABS,ioos:station:wmo:42051:1,2013-03-05T13:00:00Z,29.6350,-93.6417,2.0,27.0337,11111222 
TABS,ioos:station:wmo:42051:1,2013-03-05T13:30:00Z,29.6350,-93.6417,2.0,27.0258,11111222 
TABS,ioos:station:wmo:42051:1,2013-03-05T14:00:00Z,29.6350,-93.6417,2.0,27.0259,11111222 
TABS,ioos:station:wmo:42051:1,2013-03-05T14:30:00Z,29.6350,-93.6417,2.0,27.0309,11111222 
TABS,ioos:station:wmo:42051:1,2013-03-05T15:00:00Z,29.6350,-93.6417,2.0,27.0227,11111222 
TABS,ioos:station:wmo:42051:1,2013-03-05T15:30:00Z,29.6350,-93.6417,2.0,27.0285,11111222 
TABS,ioos:station:wmo:42051:1,2013-03-05T16:00:00Z,29.6350,-93.6417,2.0,27.0035,11111222 
TABS,ioos:station:wmo:42051:1,2013-03-05T16:30:00Z,29.6350,-93.6417,2.0,27.0022,11111222 
TABS,ioos:station:wmo:42051:1,2013-03-05T17:00:00Z,29.6350,-93.6417,2.0,27.0278,11111222 
TABS,ioos:station:wmo:42051:1,2013-03-05T17:30:00Z,29.6350,-93.6417,2.0,27.0541,11111222 
TABS,ioos:station:wmo:42051:1,2013-03-05T18:00:00Z,29.6350,-93.6417,2.0,27.0598,11111222 
TABS,ioos:station:wmo:42051:1,2013-03-05T18:30:00Z,29.6350,-93.6417,2.0,27.0654,11111222 
TABS,ioos:station:wmo:42051:1,2013-03-05T19:00:00Z,29.6350,-93.6417,2.0,27.0956,11111222 
TABS,ioos:station:wmo:42051:1,2013-03-05T19:30:00Z,29.6350,-93.6417,2.0,27.1104,11111222 
TABS,ioos:station:wmo:42051:1,2013-03-05T20:00:00Z,29.6350,-93.6417,2.0,27.1029,11111222 
TABS,ioos:station:wmo:42051:1,2013-03-05T20:30:00Z,29.6350,-93.6417,2.0,27.1537,11111222 
TABS,ioos:station:wmo:42051:1,2013-03-05T21:00:00Z,29.6350,-93.6417,2.0,27.1674,11111222 
TABS,ioos:station:wmo:42051:1,2013-03-05T21:30:00Z,29.6350,-93.6417,2.0,27.2247,11111222 
TABS,ioos:station:wmo:42051:1,2013-03-05T22:00:00Z,29.6350,-93.6417,2.0,27.3177,11111222 
TABS,ioos:station:wmo:42051:1,2013-03-05T22:30:00Z,29.6350,-93.6417,2.0,27.2708,11111222 
TABS,ioos:station:wmo:42051:1,2013-03-05T23:00:00Z,29.6350,-93.6417,2.0,27.2907,11111222 
TABS,ioos:station:wmo:42051:1,2013-03-05T23:30:00Z,29.6350,-93.6417,2.0,27.3419,11111222 
TABS,ioos:station:wmo:42051:1,2013-03-06T00:00:00Z,29.6350,-93.6417,2.0,27.3307,11111222 
TABS,ioos:station:wmo:42051:1,2013-03-06T00:30:00Z,29.6350,-93.6417,2.0,27.2966,11111222 
TABS,ioos:station:wmo:42051:1,2013-03-06T01:00:00Z,29.6350,-93.6417,2.0,27.2656,11111222 
TABS,ioos:station:wmo:42051:1,2013-03-06T01:30:00Z,29.6350,-93.6417,2.0,27.2797,11111222 
TABS,ioos:station:wmo:42051:1,2013-03-06T02:00:00Z,29.6350,-93.6417,2.0,27.1797,11111222 
TABS,ioos:station:wmo:42051:1,2013-03-06T02:30:00Z,29.6350,-93.6417,2.0,27.1866,11111222 
TABS,ioos:station:wmo:42051:1,2013-03-06T03:00:00Z,29.6350,-93.6417,2.0,27.2993,11111222 
TABS,ioos:station:wmo:42051:1,2013-03-06T03:30:00Z,29.6350,-93.6417,2.0,27.3228,11111222 
TABS,ioos:station:wmo:42051:1,2013-03-06T04:00:00Z,29.6350,-93.6417,2.0,27.2859,11111222 
TABS,ioos:station:wmo:42051:1,2013-03-06T04:30:00Z,29.6350,-93.6417,2.0,27.2858,11111222 
TABS,ioos:station:wmo:42051:1,2013-03-06T05:00:00Z,29.6350,-93.6417,2.0,27.382,11111222 
TABS,ioos:station:wmo:42051:1,2013-03-06T05:30:00Z,29.6350,-93.6417,2.0,27.4108,11111222 
TABS,ioos:station:wmo:42051:1,2013-03-06T06:00:00Z,29.6350,-93.6417,2.0,27.4616,11111222 
TABS,ioos:station:wmo:42051:1,2013-03-06T06:30:00Z,29.6350,-93.6417,2.0,27.5998,11111222 
TABS,ioos:station:wmo:42051:1,2013-03-06T07:00:00Z,29.6350,-93.6417,2.0,27.5961,11111222 
TABS,ioos:station:wmo:42051:1,2013-03-06T07:30:00Z,29.6350,-93.6417,2.0,27.7619,11111222 
TABS,ioos:station:wmo:42051:1,2013-03-06T08:00:00Z,29.6350,-93.6417,2.0,27.876,11111222 
TABS,ioos:station:wmo:42051:1,2013-03-06T08:30:00Z,29.6350,-93.6417,2.0,27.9174,11111222 
TABS,ioos:station:wmo:42051:1,2013-03-06T09:00:00Z,29.6350,-93.6417,2.0,27.9921,11111222 
TABS,ioos:station:wmo:42051:1,2013-03-06T09:30:00Z,29.6350,-93.6417,2.0,28.0252,11111222 
TABS,ioos:station:wmo:42051:1,2013-03-06T10:00:00Z,29.6350,-93.6417,2.0,27.9857,11111222 
TABS,ioos:station:wmo:42051:1,2013-03-06T10:30:00Z,29.6350,-93.6417,2.0,28.0558,11111222 
TABS,ioos:station:wmo:42051:1,2013-03-06T11:00:00Z,29.6350,-93.6417,2.0,28.0458,11111222 
TABS,ioos:station:wmo:42051:1,2013-03-06T11:30:00Z,29.6350,-93.6417,2.0,28.1567,11111222 
TABS,ioos:station:wmo:42051:1,2013-03-06T12:00:00Z,29.6350,-93.6417,2.0,28.0191,11111222 
TABS,ioos:station:wmo:42051:1,2013-03-06T12:30:00Z,29.6350,-93.6417,2.0,28.1272,11111222 